Hourly Data Report for October 05, 2017

All times are specified in Local Standard Time (LST). Add 1 hour to adjust for Daylight Saving Time where and when it is observed.

NORWAY HOUSE
MANITOBA

53°57'30.000" N
97°50'39.000" W
223.70 m
5062040
71410
YNE

Related Data

No related data is available for this station

Download Data

Hourly Data (October 2017)
Hourly Data Report for October 5, 2017
Temp Definition
°C
Dew Point Temp Definition
°C
Rel Hum Definition
%
Wind Dir Definition
10's deg

Wind Spd Definition
km/h
Visibility Definition
km
Stn Press Definition
kPa
Hmdx Definition


Wind Chill Definition


Weather Definition


TIME
00:00 Legend Double Dagger 3.1 -0.3 78 31 8 16.1 99.11     LegendNANA
01:00 Legend Double Dagger 2.4 -1.1 78 29 5 16.1 99.13     LegendNANA
02:00 Legend Double Dagger 1.0 -1.1 86 28 5 16.1 99.14     LegendNANA
03:00 Legend Double Dagger 0.3 -0.6 93 25 5 16.1 99.15     LegendNANA
04:00 Legend Double Dagger -0.1 -0.6 96 28 8 16.1 99.17   -3 LegendNANA
05:00 Legend Double Dagger -1.6 -1.9 98 22 5 16.1 99.20   -3 LegendNANA
06:00 Legend Double Dagger -1.4 -1.5 99 23 5 16.1 99.19   -3 LegendNANA
07:00 Legend Double Dagger -0.8 -0.9 99 23 5 16.1 99.14   -2 LegendNANA
08:00 Legend Double Dagger 1.0 0.4 96 26 5 16.1 99.16     LegendNANA
09:00 Legend Double Dagger 3.8 -0.3 75 28 11 16.1 99.13     LegendNANA
10:00 Legend Double Dagger 5.6 -2.1 58 27 9 16.1 99.10     LegendNANA
11:00 Legend Double Dagger 7.3 -2.6 49 29 15 16.1 99.05     LegendNANA
12:00 Legend Double Dagger 8.0 -1.5 51 27 11 16.1 99.01     LegendNANA
13:00 Legend Double Dagger 9.1 -0.6 51 28 9 16.1 98.91     LegendNANA
14:00 Legend Double Dagger 10.4 -0.1 48 24 17 16.1 98.85     LegendNANA
15:00 Legend Double Dagger 10.7 0.7 50 24 13 16.1 98.81     LegendNANA
16:00 Legend Double Dagger 10.9 1.0 50 25 11 16.1 98.74     LegendNANA
17:00 Legend Double Dagger 9.7 2.2 59 25 11 16.1 98.67     LegendNANA
18:00 Legend Double Dagger 9.5 2.4 61 24 11 16.1 98.61     LegendNANA
19:00 Legend Double Dagger 9.2 3.6 68 23 11 16.1 98.55     LegendNANA
20:00 Legend Double Dagger 10.1 4.9 70 23 17 16.1 98.46     LegendNANA
21:00 Legend Double Dagger 10.9 5.7 70 24 11 16.1 98.41     LegendNANA
22:00 Legend Double Dagger 11.1 5.7 69 24 13 16.1 98.35     LegendNANA
23:00 Legend Double Dagger 11.6 5.4 65 24 15 16.1 98.27     LegendNANA

Notes on Data Quality.

Legend

  • E = Estimated
  • M = Missing
  • NA = Not Available
  • ‡ = Partner data that is not subject to review by the National Climate Archives
Date modified: